Regional Weather Roundup
Issued by NWS

Home | Current Version | Previous Version | Text Only | Print | Product List | Glossary On
Versions: 1 2 3 4 5 6 7 8 9 10 11 12 13 14 15 16 17 18 19 20 21 22 23 24 25 26 27 28 29 30 31 32 33 34 35 36 37 38 39 40 41 42 43 44 45 46 47 48 49 50
000
ASUS43 KDMX 030208
RWRIA

WEATHER ROUNDUP FOR IOWA
NATIONAL WEATHER SERVICE DES MOINES IA
900 PM CDT MON MAY 02 2016

NOTE: "FAIR" INDICATES FEW OR NO CLOUDS BELOW 12,000 FEET WITH NO
SIGNIFICANT WEATHER AND/OR OBSTRUCTIONS TO VISIBILITY.

* - THESE STATIONS ARE NOT NWS STATIONS...THUS NOT UNDER NWS
QUALITY CONTROL.  THEY ALSO DO NOT REPORT WEATHER SUCH
AS PRECIPITATION OR FOG.

IAZ001>003-012>014-020>022-031>034-043>046-030300-
   NORTHWEST IOWA

CITY           SKY/WX    TMP DP  RH WIND       PRES   REMARKS
CARROLL *      PTCLDY    52  46  82 S3        30.04S
CHEROKEE *     CLEAR     50  43  76 CALM      30.03S
DENISON *      CLEAR     54  43  66 E3        30.02S
LE MARS *      CLEAR     54  46  76 CALM      30.03S
ORANGE CITY *  CLEAR     54  45  71 CALM      30.03R
SHELDON *      CLEAR     55  39  54 SW5       30.01S
SIOUX CITY     CLOUDY    57  44  62 S5        30.02F
SPENCER        CLEAR     53  39  59 S6        30.02S
STORM LAKE *   CLEAR     55  39  54 SW3       30.04S
$$

IAZ055>058-069>071-079>083-090>094-030300-
   SOUTHWEST IOWA

CITY           SKY/WX    TMP DP  RH WIND       PRES   REMARKS
ATLANTIC *     CLEAR     54  46  76 CALM      30.04S
AUDUBON *      PTCLDY    52  45  76 CALM      30.05F
CLARINDA *       N/A    N/A N/A N/A MISG        N/A
COUNCIL BLFS * CLEAR     57  37  47 CALM      30.04F
CRESTON *      CLEAR     54  41  62 CALM      30.06S
HARLAN  *      CLEAR     54  43  66 CALM      30.07S
LAMONI         CLEAR     54  42  64 SE3       30.05S
SHENANDOAH *   CLEAR     54  45  71 SE6       30.06R
$$

IAZ047>049-059>061-072>074-084-030300-
   CENTRAL IOWA

CITY           SKY/WX    TMP DP  RH WIND       PRES   REMARKS
AMES           CLEAR     50  43  77 SE5       30.04S
ANKENY *       MOCLDY    52  45  76 CALM      30.04S
BOONE *        CLEAR     52  45  76 S7        30.04R
CHARITON *     CLEAR     54  45  71 CALM      30.05S
DES MOINES     PTCLDY    55  42  61 SE5       30.05S
GRINNELL*      PTCLDY    52  43  71 S5        30.06S
KNOXVILLE *    PTCLDY    54  43  66 CALM      30.04S
MARSHALLTOWN   CLEAR     53  42  66 S3        30.04S
NEWTON *       CLOUDY    52  48  87 S3        30.05S
PELLA *        CLEAR     52  45  76 CALM      30.06S
$$

IAZ004>006-015-016-023>025-035-036-030300-
   NORTH CENTRAL IOWA

CITY           SKY/WX    TMP DP  RH WIND       PRES   REMARKS
ALGONA *       CLEAR     55  43  62 SE3       30.03S
CLARION *      CLEAR     52  46  82 S5        30.04S
ESTHERVILLE    CLEAR     53  43  68 S5        30.02S
FORT DODGE *   CLEAR     50  37  62 CALM      30.04S
MASON CITY     CLEAR     52  42  69 S5        30.04S
FOREST CITY *  MOCLDY    52  43  71 S5        30.03S
WEBSTER CITY * CLEAR     54  45  71 S5        30.02S
IOWA FALLS *     N/A     52  43  71 S6        30.05S
$$

IAZ007>011-017>019-026>030-037>042-050>054-066-030300-
   NORTHEAST IOWA

CITY           SKY/WX    TMP DP  RH WIND       PRES   REMARKS
CEDAR RAPIDS   CLOUDY    51  46  83 W3        30.03S
CHARLES CITY * MOCLDY    55  41  58 S5        30.04S
CLINTON *      CLOUDY    53  47  79 W6        30.03F
DECORAH *      MOCLDY    57  37  47 CALM      30.02S
DUBUQUE        CLOUDY    52  42  69 SW3       30.03S
MONTICELLO *   MOCLDY    52  45  76 CALM      30.03S
OELWEIN *      PTCLDY    52  43  71 SW6       30.04S
WATERLOO       CLEAR     52  40  63 S3        30.03S
$$

IAZ064-065-067-068-078-030300-
   EAST CENTRAL IOWA

CITY           SKY/WX    TMP DP  RH WIND       PRES   REMARKS
DAVENPORT      CLOUDY    54  45  71 W3        30.03F
IOWA CITY      CLOUDY    53  45  74 CALM      30.05S
MT. PLEASANT * CLOUDY    54  50  87 W3        30.04S
MUSCATINE *    CLOUDY    54  46  76 CALM      30.04S
QUAD CITIES    CLOUDY    54  45  71 W5        30.02F
$$

IAZ062-063-075>077-085>089-095>099-030300-
   SOUTHEAST IOWA

CITY           SKY/WX    TMP DP  RH WIND       PRES   REMARKS
BURLINGTON     CLOUDY    53  48  83 NW5       30.03S
FAIRFIELD *    CLOUDY    50  46  87 W6        30.05S
FORT MADISON * CLOUDY    52  48  87 CALM      30.05S
KEOKUK *       CLOUDY    54  48  82 CALM      30.03F
OSKALOOSA *      N/A     52  41  66 CALM      30.06S
OTTUMWA        CLOUDY    51  46  83 CALM      30.05S
WASHINGTON *   CLOUDY    52  50  93 W5        30.06S
$$

ABBREVIATIONS USED IN REMARKS
   TC - TEMPERATURES IN CELSIUS
  WCI - WIND CHILL INDEX
   HX - HEAT INDEX
  VSB - VISIBILITY
$$





USA.gov is the U.S. government's official web portal to all federal, state and local government web resources and services.